Regional Weather Roundup
Issued by NWS

Home | Current Version | Previous Version | Text Only | Print | Product List | Glossary Off
Versions: 1 2 3 4 5 6 7 8 9 10 11 12 13 14 15 16 17 18 19 20 21 22 23 24 25 26 27 28 29 30 31 32 33 34 35 36 37 38 39 40 41 42 43 44 45 46 47 48 49 50

000
ASUS43 KIND 282359
RWRIN

WEATHER ROUNDUP FOR INDIANA
NATIONAL WEATHER SERVICE INDIANAPOLIS IN
800 PM EDT THU AUG 28 2014

NOTE: "FAIR" INDICATES FEW OR NO CLOUDS BELOW 12,000 FEET WITH NO
SIGNIFICANT WEATHER AND/OR OBSTRUCTIONS TO VISIBILITY.

* - STATION DOES NOT REPORT WEATHER SUCH AS PRECIPITATION OR FOG.

+ - STATION NOT QUALITY CONTROLLED BY THE NATIONAL WEATHER SERVICE.
    USE DATA WITH CAUTION...ESPECIALLY DEWPOINT AND RELATIVE
    HUMIDITY OBSERVATIONS.

INZ001>003-010>013-019-020-290100-
NORTHWEST INDIANA

CITY           SKY/WX    TMP DP  RH WIND       PRES   REMARKS
GARY /AIRPORT/ MOCLDY    72  64  78 NE8       30.06F
KNOX *+        CLEAR     75  65  71 E5        30.04F
MONTICELLO +   CLEAR     76  67  72 CALM      30.03F
VALPARAISO     CLEAR     72  66  81 E3        30.05F
6HR MIN TEMP:  72; 6HR MAX TEMP:  81;


$$

LMZ046-743>745-290100-
SOUTHERN LAKE MICHIGAN

STATION/POSITION TIME  TEMP WIND        PRES
                       AIR  DIR/SP/G
                 (UTC) (F)  (DEG/KT/KT) (MB)
MICHIGAN CITY    2300   71   20/ 11/ 13   N/A

$$

INZ004-005-014>016-021>024-290100-
NORTH CENTRAL INDIANA

CITY           SKY/WX    TMP DP  RH WIND       PRES   REMARKS
ELKHART        PTCLDY    75  59  57 SE5       30.08
GOSHEN         PTCLDY    77  62  59 CALM      30.07S
6HR MIN TEMP:  76; 6HR MAX TEMP:  81;

SOUTH BEND     PTCLDY    77  60  55 SE8       30.07S
6HR MIN TEMP:  77; 6HR MAX TEMP:  80;


$$

INZ006>009-017-018-025>027-290100-
NORTHEAST INDIANA

CITY           SKY/WX    TMP DP  RH WIND       PRES   REMARKS
ANGOLA *+      CLEAR     73  61  64 SE5       30.09S
FORT WAYNE     PTCLDY    73  62  68 SE5       30.09R
6HR MIN TEMP:  73; 6HR MAX TEMP:  78;


$$

INZ028-029-035-036-043>045-051>053-290100-
WEST CENTRAL INDIANA

CITY           SKY/WX    TMP DP  RH WIND       PRES   REMARKS
GREENCASTLE +  CLEAR     77  68  73 CALM      30.04S
LAFAYETTE      CLEAR     75  66  73 E9        30.02F
6HR MIN TEMP:  75; 6HR MAX TEMP:  82;

TERRE HAUTE    CLEAR     79  69  71 E5        30.02R
6HR MIN TEMP:  79; 6HR MAX TEMP:  86;


$$

INZ030>032-037>040-046>048-054>057-064-065-290100-
CENTRAL INDIANA

CITY           SKY/WX    TMP DP  RH WIND       PRES   REMARKS
COLUMBUS       PTCLDY    81  68  65 NE3       30.03R
FRANKFORT +    CLEAR     75  66  72 E5        30.06F
INDIANAPOLIS   PTCLDY    80  65  59 E8        30.03S
6HR MIN TEMP:  80; 6HR MAX TEMP:  84;

-EAGLE CREEK   CLEAR     78  63  59 E8        30.03S
6HR MIN TEMP:  78; 6HR MAX TEMP:  83;

KOKOMO *+      CLEAR     73  64  73 E7        30.05F
MT COMFORT *+  CLEAR     75  70  83 E5        30.06R
SHELBYVILLE    CLEAR     79  68  69 E5        30.04R
6HR MIN TEMP:  79; 6HR MAX TEMP:  86;


$$

INZ033-034-041-042-049-050-058-059-290100-
EAST CENTRAL INDIANA

CITY           SKY/WX    TMP DP  RH WIND       PRES   REMARKS
MUNCIE         CLEAR     75  64  68 NE8       30.07R
6HR MIN TEMP:  75; 6HR MAX TEMP:  81;


$$

INZ060-061-067>069-081>083-085>088-290100-
SOUTHWEST INDIANA

CITY           SKY/WX    TMP DP  RH WIND       PRES   REMARKS
EVANSVILLE     TSTM      73  69  87 SW25G36   30.00R FOG
6HR MIN TEMP:  73; 6HR MAX TEMP:  92; 6HR PCP:  0.04;


$$

INZ062-063-066-070>080-084-089>092-290100-
SOUTH CENTRAL AND SOUTHEAST INDIANA

CITY           SKY/WX    TMP DP  RH WIND       PRES   REMARKS
BLOOMINGTON    PTCLDY    82  69  64 SE3       30.03R
6HR MIN TEMP:  81; 6HR MAX TEMP:  87;

SEYMOUR +      CLEAR     82  64  54 E3        30.02

$$




USA.gov is the U.S. government's official web portal to all federal, state and local government web resources and services.